Weather History for Lamoni, IA

Change the Weather History Date:

Thursday, December 27, 2012

  Actual Average Record
Temperature  
Mean Temperature 17 °F 24 °F  
Max Temperature 26 °F 33 °F 63 °F (1976)
Min Temperature 8 °F 16 °F -2 °F (2000)
Degree Days  
Heating Degree Days 48 40  
Month to date heating degree days 873 1018  
Since 1 July heating degree days 2069 2266  
Cooling Degree Days 0 0  
Month to date cooling degree days 0 0  
Year to date cooling degree days 1312 946  
Moisture  
Dew Point 14 °F    
Average Humidity 80    
Maximum Humidity 92    
Minimum Humidity 68    
Precipitation  
Precipitation 0.00 in 0.04 in 1.59 in (1982)
Month to date precipitation 1.52 1.32  
Sea Level Pressure  
Sea Level Pressure 30.11 in    
Wind  
Wind Speed 6 mph (East)    
Max Wind Speed 14 mph    
Max Gust Speed 20 mph    
Visibility 9 miles    
Events      
T = Trace of Precipitation, MM = Missing Value Source: NWS Daily Summary

Daily Weather History Graph

Daily Weather History Graph

Search for Another Location

Airport:

Trip Planner

Search our weather history database for the weather conditions in past years. The results will help you decide how hot, cold, wet, or windy it might be!

Date:

Astronomy

Dec. 27, 2012 Rise Set
Actual Time 7:38 AM CST 4:55 PM CST
Civil Twilight 7:07 AM CST 5:26 PM CST
Nautical Twilight 6:33 AM CST 6:00 PM CST
Astronomical Twilight 5:59 AM CST 6:34 PM CST
Moon 4:39 PM CST (12/27) 6:49 AM CST (12/27)
Length of Visible Light 10h 18m
Length of Day
9h 17m
Full, 100% of the Moon is Illuminated
Dec 27
Full
Dec 28
Full
Jan 4
Last Quarter
Jan 11
New
Jan 18
First Quarter

Hourly Weather History & Observations

Time (CST) Temp. Windchill Dew Point Humidity Pressure Visibility Wind Dir Wind Speed Gust Speed Precip Events Conditions
12:26 AM 8.6 °F -1.3 °F 5.0 °F 85% 30.16 in 10.0 mi North 5.8 mph - N/A   Mostly Cloudy
12:53 AM 10.9 °F 2.9 °F 6.1 °F 81% 30.22 in 10.0 mi NNE 4.6 mph - N/A   Overcast
1:53 AM 12.0 °F 5.9 °F 8.1 °F 84% 30.22 in 10.0 mi NNE 3.5 mph - N/A   Overcast
2:53 AM 12.0 °F - 8.1 °F 84% 30.23 in 10.0 mi Calm Calm - N/A   Overcast
3:41 AM 8.6 °F 0.1 °F 6.8 °F 92% 30.16 in 9.0 mi NNE 4.6 mph - N/A   Scattered Clouds
3:53 AM 10.0 °F 1.8 °F 6.1 °F 84% 30.22 in 9.0 mi NE 4.6 mph - N/A   Scattered Clouds
4:53 AM 10.0 °F 0.4 °F 6.1 °F 84% 30.20 in 8.0 mi ENE 5.8 mph - N/A   Clear
5:53 AM 10.0 °F -1.9 °F 7.0 °F 87% 30.17 in 8.0 mi ENE 8.1 mph - N/A   Clear
6:53 AM 10.0 °F 0.4 °F 7.0 °F 87% 30.19 in 7.0 mi ENE 5.8 mph - N/A   Clear
7:53 AM 10.9 °F 2.9 °F 8.1 °F 88% 30.19 in 6.0 mi East 4.6 mph - N/A   Partly Cloudy
8:53 AM 14.0 °F 5.1 °F 10.0 °F 84% 30.18 in 7.0 mi East 5.8 mph - N/A   Scattered Clouds
9:53 AM 17.1 °F 11.7 °F 14.0 °F 88% 30.22 in 8.0 mi South 3.5 mph - N/A   Overcast
10:04 AM 17.6 °F - 14.0 °F 86% 30.14 in 8.0 mi Calm Calm - N/A   Overcast
10:17 AM 17.6 °F 12.3 °F 14.0 °F 86% 30.13 in 8.0 mi East 3.5 mph - N/A   Overcast
10:53 AM 19.0 °F 10.0 °F 15.1 °F 85% 30.19 in 8.0 mi NE 6.9 mph - N/A   Overcast
11:53 AM 21.0 °F 10.6 °F 16.0 °F 81% 30.15 in 10.0 mi East 9.2 mph - N/A   Overcast
12:53 PM 25.0 °F 14.8 °F 17.1 °F 72% 30.08 in 10.0 mi ESE 10.4 mph - N/A   Mostly Cloudy
1:50 PM 24.8 °F 15.3 °F 17.6 °F 74% 30.01 in 10.0 mi ESE 9.2 mph 16.1 mph N/A   Overcast
1:53 PM 25.0 °F 14.8 °F 18.0 °F 75% 30.06 in 10.0 mi ESE 10.4 mph - N/A   Overcast
2:53 PM 26.1 °F 15.6 °F 18.0 °F 71% 30.04 in 10.0 mi East 11.5 mph 16.1 mph N/A   Overcast
3:53 PM 26.1 °F 17.6 °F 18.0 °F 71% 30.06 in 10.0 mi East 8.1 mph - N/A   Overcast
4:53 PM 26.1 °F 18.4 °F 18.0 °F 71% 30.05 in 10.0 mi East 6.9 mph - N/A   Overcast
5:30 PM 26.6 °F 19.1 °F 17.6 °F 69% 29.99 in 10.0 mi ESE 6.9 mph - N/A   Overcast
6:37 PM 26.6 °F 19.1 °F 19.4 °F 74% 30.00 in 10.0 mi East 6.9 mph - N/A   Overcast
6:53 PM 26.1 °F 19.4 °F 19.0 °F 75% 30.06 in 10.0 mi East 5.8 mph - N/A   Overcast
7:04 PM 26.6 °F 20.0 °F 19.4 °F 74% 30.00 in 10.0 mi East 5.8 mph - N/A   Overcast
7:12 PM 26.6 °F 21.2 °F 19.4 °F 74% 30.00 in 10.0 mi East 4.6 mph - N/A   Overcast
7:53 PM 26.1 °F 20.5 °F 19.9 °F 78% 30.06 in 10.0 mi ENE 4.6 mph - N/A   Overcast
8:53 PM 26.1 °F 19.4 °F 19.9 °F 78% 30.05 in 10.0 mi NE 5.8 mph - N/A   Overcast
9:53 PM 26.1 °F 20.5 °F 19.9 °F 78% 30.05 in 10.0 mi East 4.6 mph - N/A   Overcast
10:53 PM 26.1 °F 18.4 °F 19.9 °F 78% 30.04 in 10.0 mi East 6.9 mph - N/A   Overcast
11:53 PM 26.1 °F 18.4 °F 19.9 °F 78% 30.03 in 10.0 mi ESE 6.9 mph - N/A   Overcast